User: anonymous   Login
Location: UBC Liquid-Mirror Observatory
(49.2876°N, 122.5728°W)
Time: 23:36:48
(UTC-07:00)
Language:

KITSAT 1 - Orbit

View from above orbital plane
View from above orbital plane
View from above satellite
View from above satellite

Ground track
Ground track

The orbit data is extracted from the following two-line orbital elements,

1 22077U 92052B   16272.94500002 -.00000046 +00000-0 +61374-4 0  9990
2 22077 066.0842 153.7690 0006636 202.4403 245.4049 12.86515366133416
Epoch (UTC): 28 September 2016 22:40:48
Eccentricity: 0.0006636
inclination: 66.0842°
perigee height: 1310 km
apogee height: 1320 km
right ascension of ascending node: 153.7690°
argument of perigee: 202.4403°
revolutions per day: 12.86515366
mean anomaly at epoch: 245.4049°
orbit number at epoch: 13341

The dashed part of the orbit path shows where the satellite is in the earth's shadow,  

DLR